This demonstration page uses our WeatherBlox Daily Observations layout. Learn more.

Left ArrowRight Arrow

Hourly Observations for December 28, 2020

Temp ( °F °C ) Dew Point ( °F °C ) Humidity (%) Winds ( mph kmh ) Pressure ( in mb ) Visibility ( mi km ) Precip ( " mm )
12:52 am 00:52 Cloudy 26 -3.3 19 -7.2 75 75 NW 17 28 30.27 1025 10 16 0.00 0.00
1:52 am 01:52 Cloudy 24 -4.4 18 -7.8 77 77 NNW 13 20 30.27 1025 10 16 0.00 0.00
2:52 am 02:52 Cloudy 24 -4.4 17 -8.3 75 75 NW 17 28 30.29 1026 10 16 0.00 0.00
3:52 am 03:52 Cloudy 24 -4.4 17 -8.3 75 75 NNW 12 19 30.30 1026 10 16 0.00 0.00
4:52 am 04:52 Cloudy 23 -5 17 -8.3 78 78 NNW 15 24 30.34 1028 10 16 0.00 0.00
4:58 am 04:58 Cloudy 23 -5 18 -7.8 81 81 NNW 9 15 30.38 1029 10 16 0.00 0.00
5:52 am 05:52 Cloudy 22 -5.6 17 -8.3 82 82 NNW 13 20 30.36 1028 10 16 0.00 0.00
6:52 am 06:52 Cloudy 22 -5.6 16 -8.9 78 78 NW 13 20 30.40 1029 10 16 0.00 0.00
6:59 am 06:59 Cloudy 22 -5.6 16 -8.9 78 78 NW 16 26 30.44 1031 10 16 0.00 0.00
7:52 am 07:52 Cloudy 22 -5.6 16 -8.9 78 78 NNW 10 17 30.42 1030 10 16 0.00 0.00
8:52 am 08:52 Mostly Cloudy 22 -5.6 16 -8.9 78 78 NNW 8 13 30.44 1031 10 16 0.00 0.00
9:52 am 09:52 Mostly Cloudy 24 -4.4 16 -8.9 71 71 NW 12 19 30.47 1032 10 16 0.00 0.00
10:52 am 10:52 Mostly Cloudy 26 -3.3 16 -8.9 66 66 NW 10 17 30.49 1033 10 16 0.00 0.00
11:52 am 11:52 Mostly Cloudy 26 -3.3 15 -9.4 63 63 VRB 5 7 30.48 1032 10 16 0.00 0.00
12:52 pm 12:52 Cloudy 26 -3.3 16 -8.9 66 66 NW 8 13 30.48 1032 10 16 0.00 0.00
1:52 pm 13:52 Cloudy 27 -2.8 17 -8.3 66 66 WNW 7 11 30.48 1032 10 16 0.00 0.00
2:52 pm 14:52 Cloudy 27 -2.8 18 -7.8 69 69 NNE 8 13 30.48 1032 10 16 0.00 0.00
3:35 pm 15:35 Mostly Cloudy 28 -2.2 18 -7.8 66 66 NE 6 9 30.50 1033 10 16 0.00 0.00
3:52 pm 15:52 Partly Cloudy 29 -1.7 18 -7.8 63 63 NE 6 9 30.47 1032 10 16 0.00 0.00
4:52 pm 16:52 Partly Cloudy 27 -2.8 17 -8.3 66 66 Calm 30.50 1033 10 16 0.00 0.00
5:52 pm 17:52 Partly Cloudy 24 -4.4 16 -8.9 71 71 S 5 7 30.50 1033 10 16 0.00 0.00
6:52 pm 18:52 Clear 22 -5.6 16 -8.9 78 78 ESE 5 7 30.51 1033 10 16 0.00 0.00
7:52 pm 19:52 Clear 22 -5.6 16 -8.9 78 78 SE 5 7 30.50 1033 10 16 0.00 0.00
8:52 pm 20:52 Clear 23 -5 17 -8.3 78 78 ESE 3 6 30.49 1032 10 16 0.00 0.00
9:52 pm 21:52 Clear 24 -4.4 17 -8.3 75 75 Calm 30.50 1033 10 16 0.00 0.00
10:52 pm 22:52 Clear 23 -5 18 -7.8 81 81 SE 5 7 30.50 1033 10 16 0.00 0.00
11:52 pm 23:52 Partly Cloudy 23 -5 18 -7.8 81 81 SE 5 7 30.48 1032 10 16 0.00 0.00

Powered by AerisWeather